Location: Castelbiague
(43.0361°N, 0.9246°E)
Time: 09:51:27
(UTC+00:00)

Cosmos 1844 - Pass Details

Date: 17 June 2021
Orbit: 823 x 867 km, 70.9° (Epoch: 01 August)

Event Time Altitude Azimuth Distance (km) Brightness Sun altitude
Rises 21:05:30 0° 339° (NNW) 3,369 8.3 -12.7°
Reaches altitude 10° 21:08:01 10° 345° (NNW) 2,435 7.2 -13.0°
Maximum altitude 21:13:26 50° 60° (ENE) 1,049 4.1 -13.6°
Enters shadow 21:17:11 20° 129° (SE) 1,856 4.9 -14.0°
